Location: Dompnac
(44.5644°N, 4.1026°E)
Time: 22:19:36
(UTC+00:00)

NOAA 19 - Visible Passes

Search period start: 01 March 2021 00:00
Search period end: 11 March 2021 00:00
Orbit: 840 x 862 km, 99.2° (Epoch: 01 March)

Date Brightness Start Highest point End Pass type
(mag) Time Alt. Az. Time Alt. Az. Time Alt. Az.
02 Mar 8.4 19:20:15 10° WSW 19:22:43 13° W 19:25:12 10° WNW visible
03 Mar 8.2 19:07:22 10° SW 19:10:48 17° W 19:14:15 10° NW visible
04 Mar 7.9 05:44:54 10° NE 05:49:23 25° E 05:53:51 10° SSE visible
04 Mar 7.9 18:54:50 10° SW 18:58:54 21° W 19:03:01 10° NW visible
05 Mar 8.3 05:33:32 10° NE 05:37:30 20° E 05:41:27 10° SE visible
05 Mar 7.5 18:42:29 10° SSW 18:47:02 27° W 18:51:37 10° NW visible
06 Mar 8.5 05:22:21 10° NE 05:25:36 16° E 05:28:51 10° SE visible
06 Mar 7.1 18:30:17 10° SSW 18:35:11 34° W 18:40:07 10° NNW visible
07 Mar 8.8 05:11:33 10° ENE 05:13:41 12° E 05:15:48 10° ESE visible
07 Mar 6.7 18:18:13 10° S 18:23:22 42° W 18:28:32 10° NNW visible
08 Mar 6.2 18:06:14 10° S 18:11:33 54° W 18:16:54 10° NNW visible
10 Mar 8.5 19:27:40 10° WSW 19:29:27 11° W 19:31:13 10° WNW visible
